Location: Oberwangen
(47.4286°N, 8.9679°E)
Time: 08:04:55
(UTC+00:00)

Cosmos 1447 Rocket - Pass Details

Date: 26 October 2021
Orbit: 953 x 996 km, 82.9° (Epoch: 27 November)

Event Time Altitude Azimuth Distance (km) Brightness Sun altitude
Rises 05:19:16 0° 133° (SE) 3,666 8.6 -7.3°
Reaches altitude 10° 05:22:51 10° 112° (ESE) 2,715 8.5 -6.7°
Maximum altitude 05:26:18 16° 78° (ENE) 2,325 7.7 -6.2°
Drops below altitude 10° 05:29:45 10° 44° (NE) 2,709 7.3 -5.6°
Sets 05:33:18 0° 24° (NNE) 3,654 7.6 -5.0°
